AirNav   Pilot Hours Calculator
 
 1437 users online  

31E Eagles Nest Airport
West Creek, New Jersey, USA

GOING TO WEST CREEK?


FAA INFORMATION EFFECTIVE 23 MARCH 2023

Location

FAA Identifier: 31E
Lat/Long: 39-39-55.6350N 074-18-28.9600W
39-39.927250N 074-18.482667W
39.6654542,-74.3080444
(estimated)
Elevation: 38.6 ft. / 12 m (estimated)
Variation: 12W (1985)
From city: 2 miles N of WEST CREEK, NJ
Time zone: UTC -4 (UTC -5 during Standard Time)
Zip code: 08092

Airport Operations

Airport use: Open to the public
Activation date: 04/1989
Control tower: no
ARTCC: WASHINGTON CENTER
FSS: MILLVILLE FLIGHT SERVICE STATION
NOTAMs facility: MIV (NOTAM-D service available)
Attendance: NOV-MAR 7 SR-SS, APR-OCT 7 0900-1700
Wind indicator: yes
Segmented circle: no
Lights: ACTVT PAPI RWY 14 & 32; HIRL RWY 14/32 - CTAF.
Beacon: white-green (lighted land airport)
Operates sunset to sunrise.

Airport Communications

CTAF: 122.9
ATLANTIC CITY APPROACH: 134.25
ATLANTIC CITY DEPARTURE: 134.25
WX AWOS-3PT at MJX (16 nm N): 119.875 (732-797-2542)
WX ASOS at ACY (18 nm SW): PHONE 609-272-9311

Nearby radio navigation aids

VOR radial/distance  VOR name  Freq  Var
CYNr158/10.7COYLE VORTAC113.4010W
ACYr055/17.7ATLANTIC CITY VORTAC108.6010W
GXUr159/24.5MC GUIRE VORTAC110.6012W
VCNr086/31.4CEDAR LAKE VOR/DME115.2010W
RBVr175/33.3ROBBINSVILLE VORTAC113.8010W
COLr201/39.4COLTS NECK VOR/DME115.4011W

 
NDB name  Hdg/Dist  Freq  Var  ID
LAKEHURST188/22.839611WNEL -. . .-..

Airport Services

Fuel available: 100LL
Parking: tiedowns
Airframe service: MAJOR
Powerplant service: MAJOR
Bottled oxygen: NONE
Bulk oxygen: NONE

Runway Information

Runway 14/32

Dimensions: 3670 x 60 ft. / 1119 x 18 m
Surface: asphalt, in fair condition
Runway edge lights: high intensity
RUNWAY 14  RUNWAY 32
Latitude: 39-40.137167N39-39.717333N
Longitude: 074-18.764167W074-18.201167W
Elevation: 31.2 ft.38.6 ft.
Traffic pattern: leftright
Runway heading: 146 magnetic, 134 true326 magnetic, 314 true
Displaced threshold: 400 ft.400 ft.
Markings: nonprecision, in fair conditionnonprecision, in fair condition
Visual slope indicator: 2-light PAPI on left (4.00 degrees glide path)2-light PAPI on left (4.00 degrees glide path)
PAPI UNUSABLE 5 DEG LEFT OF COURSE.
Touchdown point: yes, no lightsyes, no lights
Obstructions: 58 ft. tree, 785 ft. from runway, 126 ft. right of centerline, 10:1 slope to clear64 ft. tree, 484 ft. from runway, 92 ft. right of centerline, 4:1 slope to clear

Airport Ownership and Management from official FAA records

Ownership: Privately-owned
Owner: EAGLES NEST AIRPORT LLC
100 AIRPORT ROAD, PO BOX 129
WEST CREEK, NJ 08092
Phone 609-296-1229
Manager: PETER WEIDHORN
100 AIRPORT ROAD, PO BOX 129
WEST CREEK, NJ 08092
Phone 609-296-1229

Airport Operational Statistics

Aircraft based on the field: 36
Single engine airplanes: 33
Multi engine airplanes: 1
Helicopters: 1
Ultralights: 1
    
Aircraft operations: avg 22/week *
82% transient general aviation
18% local general aviation
* for 12-month period ending 22 October 2021

Additional Remarks

REMOTE CTL ACFT OPER ADJ TO RY.
PARACHUTE DROP ZONE SW CORNER OF ARPT
DEER ON & INVOF ARPT.
FOR CD CTC WASHINGTON ARTCC AT 703-771-3587.
BTN THE HRS OF SS-SR TAKE OFF RWY 32 ONLY, LDG RWY 14 ONLY.
SEASONAL BANNER TOWING OPNS PARL TO LEFT SIDE RWY 32.

Instrument Procedures

NOTE: All procedures below are presented as PDF files. If you need a reader for these files, you should download the free Adobe Reader.

NOT FOR NAVIGATION. Please procure official charts for flight.
FAA instrument procedures published for use from 23 March 2023 at 0901Z to 20 April 2023 at 0900Z.

 
IAPs - Instrument Approach Procedures
RNAV (GPS)-A   download (167KB)
RNAV (GPS)-B   download (172KB)
NOTE: Special Take-Off Minimums/Departure Procedures apply   download (249KB)

Other nearby airports with instrument procedures:

KMJX - Ocean County Airport (16 nm N)
KACY - Atlantic City International Airport (18 nm SW)
N81 - Hammonton Municipal Airport (21 nm W)
KNEL - Lakehurst Maxfield Field Airport (22 nm N)
KWRI - McGuire Field (Joint Base Mc Guire Dix Lakehurst) Airport (25 nm NW)
 
Loc | Ops | Rwys | IFR | FBO | Links
Com | Nav | Svcs | Stats | Notes
Area around 31E (Eagles Nest Airport)
 
Road maps at: MapQuest Bing Google
 
Aerial photo
WARNING: Photo may not be current or correct
Aerial photo of 31E (Eagles Nest Airport)
Photo courtesy of FlyinPhilsPhotos.com
Photo taken 30-Sep-2007
looking north.

Do you have a better or more recent aerial photo of Eagles Nest Airport that you would like to share? If so, please send us your photo.

 
Sectional chart

 
Airport distance calculator
Flying to Eagles Nest Airport? Find the distance to fly.

From to 31E

Sunrise and sunset
Times for 23-Mar-2023
 Local
(UTC-4)
 Zulu
(UTC)
Morning civil twilight06:3010:30
Sunrise06:5710:57
Sunset19:1123:11
Evening civil twilight19:3823:38

Current date and time
Zulu (UTC)  23-Mar-2023 22:19:12
Local (UTC-4)  23-Mar-2023 18:19:12
 
METAR
KMJX 
16nm N 
AWOS-3 119.875 732-244-4450
190756Z AUTO 28012G19KT 10SM CLR 02/M11 A2992 RMK AO2 SLP138 T00221106 FZRANO TSNO
KACY 
17nm SW 
232154Z 23007KT 10SM FEW070 BKN100 19/12 A2982 RMK AO2 SLP096 T01940122
KNEL 
21nm N 
232200Z AUTO 26008KT SCT090 OVC110 16/12 A2979 RMK AO2 SLP086 T01560122 PNO $
KWRI 
25nm NW 
232155Z 25007KT 10SM BKN100 BKN140 16/13 A2980 RMK AO2A SLP091 T01550132
KVAY 
29nm NW 
ASOS 119.325 609-267-1176
232154Z AUTO 24005KT 10SM BKN100 BKN110 16/12 A2982 RMK AO2 SLP096 T01610117
KBLM 
31nm N 
AWOS-3 121.625 732-938-3330
232156Z AUTO 25008KT 10SM SCT042 15/14 A2981 RMK AO2 SLP094 T01500139
TAF
KACY 
17nm SW 
231925Z 2319/2418 22010G18KT 6SM BR SCT030 BKN050 FM232000 23016G23KT 6SM BR VCSH BKN050 FM232300 23013KT P6SM BKN060 FM240400 28012KT 6SM -SHRA BKN050 TEMPO 2404/2406 5SM SHRA BKN035 FM240600 34006KT P6SM BKN040 FM241200 36006KT 6SM -SHRA OVC020
NOTAMs
Click for the latest NOTAMs
NOTAMs are issued by the DoD/FAA and will open in a separate window not controlled by AirNav.

 

 
 

FBO, Fuel Providers, and Aircraft Ground Support

  
 Business Name 
 
 Contact 
 
 Services / Description 
 
Fuel Prices
 
Comments
  
Eagles Nest Airport 609-296-1229
732-740-2510
[web site]
[email]
Airport management, Aviation fuel, Aircraft parking (ramp or tiedown), Hangars, Hangar leasing / sales, Passenger terminal and lounge, Aircraft maintenance, Skydiving, ...

More info about Eagles Nest Airport
Phillips 66
100LL
SS $6.15 
 Updated 16-Mar-2023
 
   write
SS=Self service
Update Fuel Prices
 

Would you like to see your business listed on this page?

 If your business provides an interesting product or service to pilots, flight crews, aircraft, or users of the Eagles Nest Airport, you should consider listing it here.  To start the listing process, click on the button below
 
Add a business
 

Other Pages about Eagles Nest Airport

eaglesnestairport.com
 
Update a link
 
Copyright © AirNav, LLC. All rights reserved. Privacy Policy  Contact